Location: Krasnoyarskiy
(51.1133°N, 71.6497°E)
Time: 23:58:11
(UTC+00:00)

Cosmos 2322 Rocket - Pass Details

Date: 27 September 2022
Orbit: 833 x 850 km, 71.0° (Epoch: 03 December)

Event Time Altitude Azimuth Distance (km) Brightness Sun altitude
Rises 23:57:46 0° 331° (NNW) 3,427 5.2 -11.6°
Reaches altitude 10° 00:00:31 10° 342° (NNW) 2,486 4.6 -11.2°
Maximum altitude 00:05:34 31° 44° (NE) 1,445 4.1 -10.4°
Drops below altitude 10° 00:10:35 10° 106° (ESE) 2,468 5.8 -9.6°
Sets 00:13:18 0° 117° (ESE) 3,397 6.3 -9.2°
